Weather History for Jersey, United Kingdom

Change the Weather History Date:

Wednesday, November 21, 2012

  Actual Average Record
Temperature  
Mean Temperature 52 °F -  
Max Temperature 54 °F 48 °F 57 °F (2011)
Min Temperature 49 °F 42 °F 33 °F (1998)
Degree Days  
Heating Degree Days 13    
Growing Degree Days 2 (Base 50)    
Moisture  
Dew Point 46 °F    
Average Humidity 82    
Maximum Humidity 94    
Minimum Humidity 66    
Precipitation  
Precipitation 0.00 in - - ()
Sea Level Pressure  
Sea Level Pressure 29.85 in    
Wind  
Wind Speed 20 mph ()    
Max Wind Speed 33 mph    
Max Gust Speed 31 mph    
Visibility 6.8 miles    
Events Rain    
Averages and records for this station are not official NWS values.
T = Trace of Precipitation, MM = Missing Value Source: Averaged Metar Reports

Daily Weather History Graph

Daily Weather History Graph

Search for Another Location

Airport:

Trip Planner

Search our weather history database for the weather conditions in past years. The results will help you decide how hot, cold, wet, or windy it might be!

Date:

Astronomy

Nov. 21, 2012 Rise Set
Actual Time 7:28 AM GMT 4:20 PM GMT
Civil Twilight 6:53 AM GMT 4:55 PM GMT
Nautical Twilight 6:13 AM GMT 5:35 PM GMT
Astronomical Twilight 5:35 AM GMT 6:13 PM GMT
Moon 1:01 PM GMT (11/21) No Moon Set
Length of Visible Light 10h 02m
Length of Day
8h 51m
First Quarter, 59% of the Moon is Illuminated
Nov 21
First Quarter
Nov 28
Full
Dec 6
Last Quarter
Dec 13
New
Dec 20
First Quarter

Hourly Weather History & Observations

Time (GMT) Temp. Dew Point Humidity Pressure Visibility Wind Dir Wind Speed Gust Speed Precip Events Conditions
12:00 AM 52 °F 48 °F 80% 29.70 in 7 mi SE 25.3 mph - -   Partly Cloudy
3:00 AM 52 °F 47 °F 76% 29.66 in 12 mi SSE 18.4 mph - - Rain Light Rain
3:50 AM 51.8 °F 46.4 °F 82% 29.62 in 6.2 mi SSE 23.0 mph - N/A   Partly Cloudy
4:20 AM 53.6 °F 46.4 °F 77% 29.62 in 6.2 mi SSE 19.6 mph - N/A Rain Light Rain
4:50 AM 51.8 °F 46.4 °F 82% 29.62 in 6.2 mi South 19.6 mph 31.1 mph N/A Rain Rain
5:20 AM 51.8 °F 48.2 °F 88% 29.62 in 5.0 mi SSE 19.6 mph - N/A Rain Rain
5:50 AM 50.0 °F 48.2 °F 94% 29.62 in 6.2 mi SSE 19.6 mph - N/A Rain Rain
6:00 AM 51 °F 49 °F 90% 29.62 in 6 mi SSE 20.7 mph - - Rain Rain
6:20 AM 51.8 °F 50.0 °F 94% 29.62 in 6.2 mi South 17.3 mph - N/A   Mostly Cloudy
6:50 AM 51.8 °F 50.0 °F 94% 29.62 in 6.2 mi SSW 21.9 mph - N/A   Mostly Cloudy
7:20 AM 51.8 °F 46.4 °F 82% 29.65 in 6.2 mi West 26.5 mph - N/A   Mostly Cloudy
7:50 AM 50.0 °F 46.4 °F 87% 29.68 in 6.2 mi West 31.1 mph - N/A   Mostly Cloudy
8:20 AM 50.0 °F 44.6 °F 82% 29.71 in 6.2 mi West 25.3 mph - N/A   Mostly Cloudy
8:50 AM 50.0 °F 46.4 °F 87% 29.71 in 6.2 mi West 29.9 mph - N/A Rain Light Rain
9:00 AM 50 °F 46 °F 80% 29.75 in 17 mi West 29.9 mph - - Rain Light Rain
9:20 AM 50.0 °F 46.4 °F 87% 29.74 in 6.2 mi West 33.4 mph - N/A   Mostly Cloudy
9:50 AM 50.0 °F 44.6 °F 82% 29.77 in 6.2 mi West 25.3 mph - N/A   Mostly Cloudy
10:20 AM 51.8 °F 44.6 °F 76% 29.80 in 6.2 mi West 33.4 mph - N/A   Mostly Cloudy
10:50 AM 51.8 °F 44.6 °F 76% 29.83 in 6.2 mi West 26.5 mph - N/A   Mostly Cloudy
11:20 AM 51.8 °F 44.6 °F 76% 29.83 in 6.2 mi WNW 26.5 mph - N/A   Mostly Cloudy
11:50 AM 53.6 °F 44.6 °F 72% 29.86 in 6.2 mi WNW 24.2 mph - N/A   Scattered Clouds
12:00 PM 53 °F 45 °F 66% 29.88 in 28 mi West 27.6 mph - -   Partly Cloudy
12:20 PM 51.8 °F 44.6 °F 76% 29.89 in 6.2 mi WNW 26.5 mph - N/A   Mostly Cloudy
12:50 PM 50.0 °F 46.4 °F 87% 29.89 in 6.2 mi West 20.7 mph - N/A   Scattered Clouds
1:20 PM 51.8 °F 44.6 °F 76% 29.92 in 6.2 mi West 19.6 mph - N/A   Scattered Clouds
1:50 PM 53.6 °F 46.4 °F 77% 29.92 in 6.2 mi West 20.7 mph - N/A   Scattered Clouds
2:20 PM 51.8 °F 46.4 °F 82% 29.95 in 6.2 mi WSW 13.8 mph - N/A   Partly Cloudy
2:50 PM 51.8 °F 46.4 °F 82% 29.95 in 6.2 mi West 15.0 mph - N/A Rain Light Rain Showers
3:00 PM 51 °F 46 °F 79% 29.96 in 16 mi WSW 16.1 mph - - Rain Light Rain Showers
3:20 PM 50.0 °F 48.2 °F 94% 29.98 in 3.1 mi West 13.8 mph - N/A Rain Rain Showers
3:50 PM 51.8 °F 48.2 °F 88% 29.98 in 6.2 mi West 16.1 mph - N/A   Mostly Cloudy
4:20 PM 50.0 °F 46.4 °F 87% 29.98 in 6.2 mi West 21.9 mph - N/A   Partly Cloudy
4:50 PM 50.0 °F 46.4 °F 87% 30.01 in 6.2 mi West 18.4 mph - N/A   Scattered Clouds
5:20 PM 50.0 °F 46.4 °F 87% 30.01 in 6.2 mi West 15.0 mph - N/A   Partly Cloudy
5:50 PM 50.0 °F 46.4 °F 87% 30.01 in 6.2 mi WSW 15.0 mph - N/A   Scattered Clouds
6:00 PM 51 °F 46 °F 76% 30.03 in 31 mi West 16.1 mph - -   Partly Cloudy
6:20 PM 51.8 °F 46.4 °F 82% 30.04 in 6.2 mi WSW 16.1 mph - N/A   Scattered Clouds
6:50 PM 50.0 °F 44.6 °F 82% 30.04 in 6.2 mi WSW 15.0 mph - N/A   Partly Cloudy
7:20 PM 50.0 °F 44.6 °F 82% 30.04 in 6.2 mi SW 17.3 mph - N/A   Partly Cloudy
7:50 PM 50.0 °F 42.8 °F 76% 30.06 in 6.2 mi SW 19.6 mph - N/A   Partly Cloudy
8:20 PM 50.0 °F 44.6 °F 82% 30.06 in 6.2 mi SW 13.8 mph - N/A   Partly Cloudy
8:50 PM 50.0 °F 44.6 °F 82% 30.06 in 6.2 mi SSW 11.5 mph - N/A   Partly Cloudy
9:00 PM 49 °F 44 °F 76% 30.08 in 25 mi SSW 12.7 mph - -   Scattered Clouds